Погода в Есиле

Погода в Есиле : погода сейчас, прогноз погоды и архив. Всё, что Вы хотите узнать о погоде в Есиле!

Хотите узнать прогноз погоды в Есиле? Тогда Вам сюда: Погода в Есиле

Поиск расширенной информации на нашем сайте:

Другие новости

Новости СМИ2

Главная страница сайта

Новости сайта

03.07.2017

Напоминаем, что на нашем специализированном сайте Метеоцентр.Азия вы можете получить высокодетализированные автоматические прогнозы погоды по пунктам России, СНГ и мира в авиационном формате (включающие направление и скорость ветра, видимость, явления погоды, количество и форму облачности, нижнюю и верхнюю границу облачности).

Рекомендуем: тумба челябинск

Погода в Есиле - сегодня

Время (UTC), дата Ветер
(°,м/с) 
Видим.   Явления Облачность Т
(°С)
Тd
(°С)
f(%) Тe
(°С)
Pmin
(гПа)
dP
(гПа)
Po
(мм)
O2
(г/м3)
Тmin Tmax R s Состояние
почвы
21 20.05.18 тихо ()   н/о    8/8 600 м 
[Sc]
+16.6 +1.3 36 +17  1018.2  -0.7  744  282           
00 21.05.18 тихо ()   20000 м    4/3 600 м верхняя 
[Sc|Ci fib]
+12.1 -1 40 +12  1018.6  744  287           
06 21.05.18 230 (ЮЗ) 20000 м    8/3 1000 м верхняя 
[Sc|Ci fib]
+22.6 +3.4 28 +23  1017.2  -0.6  744  276  +12.1         
09 21.05.18 270 (З) 20000 м    9/8 1000 м верхняя 
[Cu med, cong|Ci fib]
+29.4 +5.8 22 +29  1015.8  -0.8  743  269           
21 21.05.18 270 (З) н/о  {ливн. осадки}  8/8 600 м кучево-дожд. 
[Cb cap]
+6.1 +2.5 78 +7  1016  -1.8  742  292           
09 22.05.18 320 (СЗ) 10  20000 м  {ливн. осадки}  9/9 600 м кучево-дожд. 
[Cb calv]
+12.6 +6.1 65 +11  1017.9  0.4  744  285           
21 22.05.18 360 (С) н/о    6/6 600 м 
[Sc]
+9.1 +5.8 80 +8  1017.8  3.3  743  289           
00 23.05.18 340 (С) 20000 м    3/3 600 м 
[Sc]
+5.9 +3 82 +4  1021.1  2.9  746  294           
06 23.05.18 360 (С) 10  20000 м    3/3 1000 м 
[Cu hum]
+13.3 -1.6 36 +12  1023.7  1.1  748  288  +5.4         
09 23.05.18 340 (С) 14-16{16}  20000 м    ясно 
+16.1 -7.5 19 +15  1025  1.5  749  286           
12 23.05.18 360 (С) 10{16}  20000 м    ясно 
+17.3 -7.1 18 +17  1024.9  749  285           
15 23.05.18 360 (С) 20000 м    ясно 
+15.5 -3.5 27 +16  1025.7  0.6  750  286    +18       
18 23.05.18 340 (С) н/о    ясно 
+9.1 -0.2 52 +10  1026.7  0.4  750  292    +18       
21 23.05.18 200 (Ю) н/о    ясно 
+6.2 -1.6 57 +6  1026  -1  749  295           
00 24.05.18 200 (Ю) 20000 м    8/8 600 м 
[Sc]
+5.5 -0.9 63 +4  1025.2  -0.8  749  296           
09 24.05.18 270 (З) 20000 м    6/4 600 м верхняя 
[Cu Sc|Cs]
+25.7 +6.1 29 +26  1016.3  -2.2  743  273           
12 24.05.18 270 (З) 20000 м    6/3 600 м верхняя 
[Cu Sc|Cs]
+27.6 +3.3 21 +28  1014  -2.1  742  271           
21 24.05.18 270 (З) н/о    8/8 600 м 
[Sc]
+17.3 +1.5 34 +17  1013.1  -0.6  740  280           
00 25.05.18 250 (З) 20000 м    3/3 600 м 
[Sc]
+16.3 +2.7 40 +16  1012.9  -0.3  740  281           
06 25.05.18 230 (ЮЗ) 20000 м    5/0 верхняя 
[Cc]
+25.6 +7.4 31 +26  1011  -1.2  740  271  +16.3         
09 25.05.18 230 (ЮЗ) 20000 м    8/6 600 м кучево-дожд., верхняя 
[Cb cap|Ci fib]
+28.6 +7.4 26 +29  1008.4  -2.3  738  268           
21 25.05.18 090 (В) н/о    8/0 верхняя 
[Cc]
+13.9 +9.5 75 +16  1005.4  -3  735  280           
00 26.05.18 090 (В) 20000 м    8/4 600 м верхняя 
[Sc|Ci fib]
+10.4 +6.2 75 +10  1003.9  -1.8  733  284           
09 26.05.18 340 (С) 12  20000 м    9/3 1000 м средняя 
[Cu hum|Ac As]
+15.7 +6.9 56 +14  1003.9  1.4  734  278           
00 27.05.18 020 (С) 10  20000 м  {дождь}  8/8 600 м 
[Sc]
+2.9 +1.4 90 -1  1013.3  1.1  740  295           
Время (UTC), дата Ветер
(°,м/с) 
Видим.   Явления Облачность Т
(°С)
Тd
(°С)
f(%) Тe
(°С)
Pmin
(гПа)
dP
(гПа)
Po
(мм)
O2
(г/м3)
Тmin Tmax R s Состояние
почвы

Для получения пояснительной информации подведите курсор к названию столбца.

ПОГОДА в Есиле - архив

Всё, что Вы хотите узнать о погоде в Есиле - удобно и подробно!

Выберите нужную дату (начиная с 1 января 2015* года) и нажмите кнопку "Найти".
Будут отображены архивные сводки погоды по пункту Есиль, начиная с указанной даты.


Отображать данные в формате CSV (для использования в таблицах Excel)


Внимание! Наш архив погоды предназначен исключительно для личного некоммерческого использования в познавательных целях. Если Вам необходимы официальные справки о состоянии погоды (для производственных, юридических, коммерческих и т.п. целей), обращайтесь в органы Росгидромета.

*Примечание: данная дата относится к архиву по метеостанциям СССР (Россия, СНГ, Балтия).
Архив по метеостанциям Зарубежной Европы и Азии (кроме Китая) хранится 10 дней, по другим регионам земного шара (Китай, Африка, Америка, Австралия, Океания) - 1 день.

Есиль - район местоположения метеостанции


Название, широта, долгота, высота метеостанции:
Есиль 51.9°ш. 66.3°д. 221 м над ур. моря [Казахстан]

Дополнительная информация

В oтличие oт бoльшинства пoгoдных сайтoв мы публикуем пoдрoбную метеoинфoрмацию в детальнoм прoфессиoнальнoм фoрмате.

Характеристики температуры и влажнoсти вoздуха измеряются на высoте 2 м в тени вдали oт зданий и деревьев.
Скoрoсть ветра измеряется на высoте 10 м (на урoвне рoста челoвека скoрoсть ветра ниже в 1.5-2 раза). Если метеoстанция нахoдится в гoрoде или в лесу, тo скoрoсть ветра занижена на 2-4 м/с пo сравнению с oткрытым местoм. Скoрoсть ветра над акватoриями крупных рек и oзёр, а также на вершинах хoлмoв на 2-5 м/с выше, чем в oбычных услoвиях.
Атмoсфернoе давление в разных тoчках местнoсти мoжет значительнo oтличаться oт давления на метеoстанции, в зависимoсти oт услoвий рельефа (при пoдъёме на 10 м давление пoнижается примернo на 1 мм рт.ст.).